Regional Weather Roundup
Issued by NWS

Home | Current Version | Previous Version | Graphics & Text | Print | Product List | Glossary On
Versions: 1 2 3 4 5 6 7 8 9 10 11 12 13 14 15 16 17 18 19 20 21 22 23 24 25 26 27 28 29 30 31 32 33 34 35 36 37 38 39 40 41 42 43 44 45 46 47 48 49 50
000
ASUS43 KDTX 311001
RWRMI
MICHIGAN HOURLY REGIONAL WEATHER ROUNDUP
NATIONAL WEATHER SERVICE DETROIT/PONTIAC MI
500 AM EST SAT JAN 31 2015

NOTE: "FAIR" INDICATES FEW OR NO CLOUDS BELOW 12,000 FEET WITH NO
SIGNIFICANT WEATHER AND/OR OBSTRUCTION TO VISIBILITY.

MIZ047>049-052>055-059>063-066>070-074>076-081>083-311100-
SOUTHEAST LOWER MICHIGAN

CITY           SKY/WX    TMP DP  RH WIND       PRES   REMARKS
ADRIAN         PTCLDY    14  10  84 SW3       30.33F
ALMA           CLOUDY    19  15  84 S6        30.26F WCI  11
ANN ARBOR      PTCLDY     5   2  87 CALM      30.31F
BAD AXE        CLOUDY     8   4  83 S6        30.27F WCI  -2
CARO           CLOUDY    10   6  82 CALM      30.27F
DETROIT CITY   CLOUDY    17   9  70 S3        30.33F
DETROIT        MOCLDY    13   9  84 S3        30.34F
FLINT          CLOUDY    17   9  70 S8        30.28F WCI   7
GROSSE ILE     CLOUDY    18  12  79 SW5       30.33S WCI  11
HILLSDALE      MOCLDY    15  12  88 CALM      30.27F
HOWELL         CLOUDY    14  10  83 S3        30.28F

CITY           SKY/WX    TMP DP  RH WIND       PRES   REMARKS
JACKSON        CLEAR     14  10  84 S3        30.29F
LAMBERTVILLE   MOCLDY    19  12  73 CALM      30.35S
LANSING        CLOUDY    19  13  77 S10       30.28F WCI   7
LAPEER         CLOUDY    10   6  84 S3        30.29F
MASON          MOCLDY    13   9  84 CALM      30.29S
MONROE         PTCLDY    12  10  92 CALM      30.33S
MT. CLEMENS    CLOUDY    12   7  81 SW5       30.31F WCI   4
PONTIAC        CLOUDY    11   6  81 CALM      30.28F
PORT HOPE        N/A      8   0  69 SW7       30.26F WCI  -3
PORT HURON     MOCLDY    -2  -4  92 CALM      30.31F
TRI CITIES     CLOUDY    17   9  70 S6        30.27F WCI   9
TROY           CLOUDY    16   8  71 CALM      30.33F
SAGINAW HB     CLOUDY    18  12  79 S6        30.27F WCI   9
$$
MIZ043>046-050>051-056>058-064>065-071>073-077>080-311100-
SOUTHWEST LOWER MICHIGAN

CITY           SKY/WX    TMP DP  RH WIND       PRES   REMARKS
BATTLE CREEK   CLOUDY    18  12  77 S7        30.28F WCI   9
BENTON HARBOR  CLOUDY    19  15  84 S6        30.29F WCI  11
BIG RAPIDS     CLOUDY    16  13  88 SW3       30.21F
COLDWATER      CLOUDY    16  12  85 CALM      30.29F
FREMONT        CLOUDY    16  13  86 CALM      30.23F
HOLLAND        CLOUDY    20  14  77 CALM      30.26F
GRAND RAPIDS   CLOUDY    20  14  77 S12       30.25F WCI   8
IONIA          CLOUDY    22  16  77 S10G16    30.25F WCI  11
KALAMAZOO      CLOUDY    16  12  84 S5        30.28F WCI   9
LUDINGTON      CLOUDY    28  19  67 W9        30.21F WCI  19
MARSHALL       CLOUDY    13  10  87 CALM      30.28F
MOUNT PLEASANT CLOUDY    17  12  79 S3        30.24F
MUSKEGON       CLOUDY    28  17  63 W8        30.25F WCI  20
SOUTH HAVEN    CLOUDY    24  19  81 SW6       30.27F WCI  17
$$
MIZ016>042-311100-
NORTHERN LOWER MICHIGAN

CITY           SKY/WX    TMP DP  RH WIND       PRES   REMARKS
ALPENA         LGT SNOW  11   7  84 S5        30.22F FOG     WCI   3
BEAVER ISLAND  FLURRIES  22  16  77 CALM      30.15F
CADILLAC       CLOUDY    14  10  84 S3        30.16F
CHARLEVOIX     LGT SNOW  17  15  89 S6        30.20F WCI   9
FRANKFORT      MOCLDY    19  14  81 SE3       30.19F
GAYLORD        LGT SNOW  13  11  92 S6        30.14F FOG     WCI   4
GRAYLING       CLOUDY    13  10  85 CALM      30.18F
HARBOR SPRINGS LGT SNOW  17  13  87 CALM      30.17F
HOUGHTON LAKE  CLOUDY    14   8  77 SW5       30.20F WCI   6
MANISTEE       MOCLDY    16   9  73 SE6       30.21F WCI   7
OSCODA         LGT SNOW   7   3  86 SW3       30.25F
PELLSTON       LGT SNOW  14  11  87 SE5       30.17F FOG     WCI   6
TRAVERSE CITY  CLOUDY    19  11  70 VRB3      30.18F
$$
MIZ007>008-015-311100-
EASTERN UPPER MICHIGAN

CITY           SKY/WX    TMP DP  RH WIND       PRES   REMARKS
KINROSS        CLOUDY    12  12 100 S3        30.15F
MACKINAC ISLAN LGT SNOW  15  11  87 S7        30.16F WCI   5
NEWBERRY       LGT SNOW  15  13  93 SW10      30.11F WCI   2
S. S. MARIE    LGT SNOW   9   5  84 E3        30.15F FOG
$$
MIZ004>006-011>014-085-311100-
CENTRAL UPPER MICHIGAN

CITY           SKY/WX    TMP DP  RH WIND       PRES   REMARKS
MANISTIQUE     CLOUDY    19  16  88 SW3       30.13F
ESCANABA       CLOUDY    19   9  63 SW7       30.14F WCI  10
MENOMINEE      CLOUDY    21  10  63 SW9       30.15S WCI  11
SAWYER-GWINN   CLOUDY    15  11  85 S6        30.08S WCI   6
$$
MIZ001>003-009>011-084-311100-
WESTERN UPPER MICHIGAN

CITY           SKY/WX    TMP DP  RH WIND       PRES   REMARKS
IRON MOUNTAIN  CLOUDY    17   8  67 S3        30.09S
HOUGHTON       CLOUDY    16  12  84 SW5       30.04F WCI   9
COPPER HARBOR    N/A     18  12  77 W8        30.05F WCI   8
IRONWOOD       CLOUDY    21  18  86 W8        30.05F WCI  12
$$

ABBREVIATIONS USED IN REMARKS
   TC - TEMPERATURE IN CELSIUS
  WCI - WIND CHILL INDEX
   HX - HEAT INDEX
  VSB - VISIBILITY




USA.gov is the U.S. government's official web portal to all federal, state and local government web resources and services.